RESURS-DK 1

Last updated on Tue Mar 03 2026 00:02:16 GMT+0000 (Coordinated Universal Time)

1 29228U 06021A 26061.59232097 .00003162 00000+0 18636-3 0 9992 2 29228 69.9302 255.3835 0002486 165.4863 194.6375 15.12688019 86457
UTC large
Height (km)
Speed (km/s)
/
Latitude / Longitude
Inclination (degrees)
Orbital Period (minutes)
Azimuth
Elevation
Range (km)
Doppler Factor

Next 0 passes for location: London (51.5072 / 0.1276)

Sorry there are no passes over London.